Showing default

METEOR 2-7, 12456

Orbit data source: Space-Track

METEOR 2-7, 12456 is a Commonwealth of Independent States-origin payload satellite in LEO that was launched on Thu, 14 May 1981 UTC via a VOSTOK 8A92M launch vehicle from the Plesetsk Missile And Space Complex (PKMTR). Payload-class satellites include a variety of spacecraft equipped with specific instruments for various scientific and technological missions. These include communications satellites like Starlink; space stations such as the ISS; scientific satellites like the Hubble; Earth observation satellites from companies like Planet Labs, Umbra, and HawkEye 360; GPS; miniature CubeSats for education and research; and military/defense satellites.

Loading next visibility...
Identifier
12456, 1981-043A
Orbit
LEO
Country
Flag of CISCIS
Related business
Manufacturer
VNIIEM
Mission
Spacecraft
Bus & Motor
METEOR-2, Unknown motor
Mass
~1,500 kg wet, ~1,500 kg dry
Launch date (UTC)
1981-05-14 (45 years ago)
Launch vehicle
VOSTOK 8A92M
Launch site
Plesetsk Missile And Space Complex (PKMTR)
Object type
Payload
Rocket body
Debris
Shape & HBR
Unknown
Radar Cross Section
Large (>1 m²)

Expand to show TLE details & history
Last TLE update: 2 days ago

TLE from 2 days ago
0 METEOR 2-7
1 12456U 81043A   26171.31671318  .00000177  00000-0  90245-4 0  9990
2 12456  81.2661  96.0419 0048435 120.4863 240.1104 14.11055512319494
Epoch: 2026-06-20T07:36Z
TLE epoch observation values (Epoch: 2026-06-20T07:36:04.018Z)
Latitude
-0.00011°
Longitude
73.49206°
Altitude
876.254 km
Speed
7.405 km/s
True Right ascension
06h 24m 10s
True Declination
0° 00' 00"
Sunlit
Object was in daylight at epoch
Visualization orbit readout
Latitude
Unknown
Longitude
Unknown
Altitude
Unknown
Speed
Unknown
Apparent Right ascension
Unknown
Apparent Declination
Unknown
Sunlit
N/A
Visualization observer readout
Local Sidereal Time
19:47:04
Azimuth
Unknown
Elevation
Unknown
Doppler factor
Unknown
Orbital elements
Apogee altitude
887.957 km
Perigee altitude
817.91 km
Semi-major axis
7,231.071 km
Eccentricity
0.00484
Inclination
81.2661°
RAAN
96.0419°
Arg. of periapsis
120.4863°
True anomaly
239.63065°
Mean anomaly
240.1104°
Eccentric anomaly
239.87038°
Mean motion
3.52971 °/min
Orbital period
101.99 mins
BSTAR
0.000090245
Loading maneuver chart data...
Computing Atmospheric mass density...

Documentation

Showing up to 5 results
|